Location: Dunedin
(45.8670°S, 170.5000°E)
Time: 15:49:07
(UTC+13:00)

Cosmos 1486 Rocket - Pass Details

Date: 24 January 2019
Orbit: 759 x 783 km, 74.1° (Epoch: 16 February)

Event Time Altitude Azimuth Distance (km) Brightness Sun altitude
Exits shadow 22:36:52 - 357° (N) 2,969 6.7 -11.6°
Reaches altitude 10° 22:38:37 10° 1° (N) 2,300 6.1 -11.8°
Maximum altitude 22:43:40 51° 75° (ENE) 972 4.2 -12.4°
Drops below altitude 10° 22:48:47 10° 149° (SSE) 2,340 6.7 -13.1°
Sets 22:51:15 0° 154° (SSE) 3,278 7.6 -13.4°
